Location: Strada George Coșbuc
(47.6577°N, 23.5639°E)
Time: 22:12:54
(UTC+03:00)

ISS - Pass Details

Date: 27 September 2017
Orbit: 401 x 407 km, 51.6° (Epoch: 25 September)

Event Time Altitude Azimuth Distance (km) Brightness Sun altitude
Rises 22:10:27 0° 262° (W) 2,318 0.7 -29.2°
Reaches altitude 10° 22:12:34 10° 268° (W) 1,461 -0.4 -29.5°
Enters shadow 22:12:38 11° 268° (W) 1,431 -0.4 -29.5°
